02/05/2024 06:00:00,0.286
02/05/2024 06:15:00,0.286
02/05/2024 06:30:00,0.286
02/05/2024 06:45:00,0.286
02/05/2024 07:00:00,0.286
02/05/2024 07:15:00,0.286
02/05/2024 07:30:00,0.286
02/05/2024 07:45:00,0.286
02/05/2024 08:00:00,0.286
02/05/2024 08:15:00,0.286
02/05/2024 08:30:00,0.286
02/05/2024 08:45:00,0.286
02/05/2024 09:00:00,0.286
02/05/2024 09:15:00,0.286
02/05/2024 09:30:00,0.286
02/05/2024 09:45:00,0.286
02/05/2024 10:00:00,0.286
02/05/2024 10:15:00,0.286
02/05/2024 10:30:00,0.285
02/05/2024 10:45:00,0.285
02/05/2024 11:00:00,0.285
02/05/2024 11:15:00,0.285
02/05/2024 11:30:00,0.285
02/05/2024 11:45:00,0.287
02/05/2024 12:00:00,0.287
02/05/2024 12:15:00,0.286
02/05/2024 12:30:00,0.286
02/05/2024 12:45:00,0.285
02/05/2024 13:00:00,0.285
02/05/2024 13:15:00,0.285
02/05/2024 13:30:00,0.285
02/05/2024 13:45:00,0.285
02/05/2024 14:00:00,0.283
02/05/2024 14:15:00,0.28
02/05/2024 14:30:00,0.28
02/05/2024 14:45:00,0.28
02/05/2024 15:00:00,0.28
02/05/2024 15:15:00,0.282
02/05/2024 15:30:00,0.282
02/05/2024 15:45:00,0.28
02/05/2024 16:00:00,0.28
02/05/2024 16:15:00,0.28
02/05/2024 16:30:00,0.28
02/05/2024 16:45:00,0.28
02/05/2024 17:00:00,0.28
02/05/2024 17:15:00,0.28
02/05/2024 17:30:00,0.28
02/05/2024 17:45:00,0.28
02/05/2024 18:00:00,0.28
02/05/2024 18:15:00,0.28
02/05/2024 18:30:00,0.28
02/05/2024 18:45:00,0.279
02/05/2024 19:00:00,0.279
02/05/2024 19:15:00,0.279
02/05/2024 19:30:00,0.279
02/05/2024 19:45:00,0.279
02/05/2024 20:00:00,0.279
02/05/2024 20:15:00,0.279
02/05/2024 20:30:00,0.279
02/05/2024 20:45:00,0.278
02/05/2024 21:00:00,0.278
02/05/2024 21:15:00,0.278
02/05/2024 21:30:00,0.278
02/05/2024 21:45:00,0.278
02/05/2024 22:00:00,0.278
02/05/2024 22:15:00,0.278
02/05/2024 22:30:00,0.278
02/05/2024 22:45:00,0.278
02/05/2024 23:00:00,0.278
02/05/2024 23:15:00,0.278
02/05/2024 23:30:00,0.278
02/05/2024 23:45:00,0.278
03/05/2024 00:00:00,0.278
03/05/2024 00:15:00,0.278
03/05/2024 00:30:00,0.278
03/05/2024 00:45:00,0.278
03/05/2024 01:00:00,0.278
03/05/2024 01:15:00,0.278
03/05/2024 01:30:00,0.278
03/05/2024 01:45:00,0.278
03/05/2024 02:00:00,0.278
03/05/2024 02:15:00,0.278
03/05/2024 02:30:00,0.278
03/05/2024 02:45:00,0.278
03/05/2024 03:00:00,0.278
03/05/2024 03:15:00,0.278
03/05/2024 03:30:00,0.278
03/05/2024 03:45:00,0.278
03/05/2024 04:00:00,0.278
03/05/2024 04:15:00,0.278
03/05/2024 04:30:00,0.278
03/05/2024 04:45:00,0.278
03/05/2024 05:00:00,0.278
03/05/2024 05:15:00,0.278
03/05/2024 05:30:00,0.278
03/05/2024 05:45:00,0.278
03/05/2024 06:00:00,0.278
03/05/2024 06:15:00,0.278
03/05/2024 06:30:00,0.278
03/05/2024 06:45:00,0.278
03/05/2024 07:00:00,0.278
03/05/2024 07:15:00,0.278
03/05/2024 07:30:00,0.278
03/05/2024 07:45:00,0.278
03/05/2024 08:00:00,0.278
03/05/2024 08:15:00,0.278
03/05/2024 08:30:00,0.278
03/05/2024 08:45:00,0.278
03/05/2024 09:00:00,0.278
03/05/2024 09:15:00,0.278
03/05/2024 09:30:00,0.278
03/05/2024 09:45:00,0.278
03/05/2024 10:00:00,0.28
03/05/2024 10:15:00,0.279
03/05/2024 10:30:00,0.279
03/05/2024 10:45:00,0.278
03/05/2024 11:00:00,0.278
03/05/2024 11:15:00,0.278
03/05/2024 11:30:00,0.278
03/05/2024 11:45:00,0.278
03/05/2024 12:00:00,0.278
03/05/2024 12:15:00,0.278
03/05/2024 12:30:00,0.278
03/05/2024 12:45:00,0.278
03/05/2024 13:00:00,0.278
03/05/2024 13:15:00,0.278
03/05/2024 13:30:00,0.279
03/05/2024 13:45:00,0.278
03/05/2024 14:00:00,0.279
03/05/2024 14:15:00,0.28
03/05/2024 14:30:00,0.28
03/05/2024 14:45:00,0.282
03/05/2024 15:00:00,0.283
03/05/2024 15:15:00,0.284
03/05/2024 15:30:00,0.284
03/05/2024 15:45:00,0.284
03/05/2024 16:00:00,0.284
03/05/2024 16:15:00,0.284
03/05/2024 16:30:00,0.285
03/05/2024 16:45:00,0.286
03/05/2024 17:00:00,0.287
03/05/2024 17:15:00,0.291
03/05/2024 17:30:00,0.295
03/05/2024 17:45:00,0.299
03/05/2024 18:00:00,0.306
03/05/2024 18:15:00,0.31
03/05/2024 18:30:00,0.317
03/05/2024 18:45:00,0.327
03/05/2024 19:00:00,0.344
03/05/2024 19:15:00,0.35
03/05/2024 19:30:00,0.352
03/05/2024 19:45:00,0.353
03/05/2024 20:00:00,0.352
03/05/2024 20:15:00,0.353
03/05/2024 20:30:00,0.352
03/05/2024 20:45:00,0.35
03/05/2024 21:00:00,0.348
03/05/2024 21:15:00,0.348
03/05/2024 21:30:00,0.345
03/05/2024 21:45:00,0.342
03/05/2024 22:00:00,0.341
03/05/2024 22:15:00,0.339
03/05/2024 22:30:00,0.335
03/05/2024 22:45:00,0.333
03/05/2024 23:00:00,0.331
03/05/2024 23:15:00,0.33
03/05/2024 23:30:00,0.329
03/05/2024 23:45:00,0.327
04/05/2024 00:00:00,0.324
04/05/2024 00:15:00,0.324
04/05/2024 00:30:00,0.321
04/05/2024 00:45:00,0.321
04/05/2024 01:00:00,0.32
04/05/2024 01:15:00,0.318
04/05/2024 01:30:00,0.318
04/05/2024 01:45:00,0.317
04/05/2024 02:00:00,0.316
04/05/2024 02:15:00,0.315
04/05/2024 02:30:00,0.313
04/05/2024 02:45:00,0.312
04/05/2024 03:00:00,0.312
04/05/2024 03:15:00,0.312
04/05/2024 03:30:00,0.311
04/05/2024 03:45:00,0.311
04/05/2024 04:00:00,0.31
04/05/2024 04:15:00,0.31
04/05/2024 04:30:00,0.31
04/05/2024 04:45:00,0.31
04/05/2024 05:00:00,0.31
04/05/2024 05:15:00,0.31
04/05/2024 05:30:00,0.31
04/05/2024 05:45:00,0.31
04/05/2024 06:00:00,0.31
04/05/2024 06:15:00,0.31
04/05/2024 06:30:00,0.309
04/05/2024 06:45:00,0.309
04/05/2024 07:00:00,0.309
04/05/2024 07:15:00,0.309
04/05/2024 07:30:00,0.309
04/05/2024 07:45:00,0.308
04/05/2024 08:00:00,0.307
04/05/2024 08:15:00,0.307
04/05/2024 08:30:00,0.306
04/05/2024 08:45:00,0.306
04/05/2024 09:00:00,0.306
04/05/2024 09:15:00,0.305
04/05/2024 09:30:00,0.305
04/05/2024 09:45:00,0.304
04/05/2024 10:00:00,0.304
04/05/2024 10:15:00,0.304
04/05/2024 10:30:00,0.304
04/05/2024 10:45:00,0.302
04/05/2024 11:00:00,0.301
04/05/2024 11:15:00,0.301
04/05/2024 11:30:00,0.301
04/05/2024 11:45:00,0.301
04/05/2024 12:00:00,0.301
04/05/2024 12:15:00,0.301
04/05/2024 12:30:00,0.301
04/05/2024 12:45:00,0.3
04/05/2024 13:00:00,0.299
04/05/2024 13:15:00,0.299
04/05/2024 13:30:00,0.299
04/05/2024 13:45:00,0.299
04/05/2024 14:00:00,0.299
04/05/2024 14:15:00,0.298
04/05/2024 14:30:00,0.298
04/05/2024 14:45:00,0.298
04/05/2024 15:00:00,0.298
04/05/2024 15:15:00,0.298
04/05/2024 15:30:00,0.298
04/05/2024 15:45:00,0.298
04/05/2024 16:00:00,0.298
04/05/2024 16:15:00,0.298
04/05/2024 16:30:00,0.298
04/05/2024 16:45:00,0.298
04/05/2024 17:00:00,0.297
04/05/2024 17:15:00,0.297
04/05/2024 17:30:00,0.297
04/05/2024 17:45:00,0.297
04/05/2024 18:00:00,0.297
04/05/2024 18:15:00,0.297
04/05/2024 18:30:00,0.297
04/05/2024 18:45:00,0.297
04/05/2024 19:00:00,0.297
04/05/2024 19:15:00,0.296
04/05/2024 19:30:00,0.296
04/05/2024 19:45:00,0.296
04/05/2024 20:00:00,0.295
04/05/2024 20:15:00,0.295
04/05/2024 20:30:00,0.295
04/05/2024 20:45:00,0.295
04/05/2024 21:00:00,0.295
04/05/2024 21:15:00,0.295
04/05/2024 21:30:00,0.295
04/05/2024 21:45:00,0.295
04/05/2024 22:00:00,0.295
04/05/2024 22:15:00,0.295
04/05/2024 22:30:00,0.294
04/05/2024 22:45:00,0.294
04/05/2024 23:00:00,0.294
04/05/2024 23:15:00,0.293
04/05/2024 23:30:00,0.293
04/05/2024 23:45:00,0.293
05/05/2024 00:00:00,0.293
05/05/2024 00:15:00,0.293
05/05/2024 00:30:00,0.293
05/05/2024 00:45:00,0.293
05/05/2024 01:00:00,0.293
05/05/2024 01:15:00,0.291
05/05/2024 01:30:00,0.291
05/05/2024 01:45:00,0.291
05/05/2024 02:00:00,0.291
05/05/2024 02:15:00,0.291
05/05/2024 02:30:00,0.291
05/05/2024 02:45:00,0.291
05/05/2024 03:00:00,0.291
05/05/2024 03:15:00,0.291
05/05/2024 03:30:00,0.291
05/05/2024 03:45:00,0.291
05/05/2024 04:00:00,0.291
05/05/2024 04:15:00,0.291
05/05/2024 04:30:00,0.291
05/05/2024 04:45:00,0.29
05/05/2024 05:00:00,0.29
05/05/2024 05:15:00,0.29
05/05/2024 05:30:00,0.29
05/05/2024 05:45:00,0.29
05/05/2024 06:00:00,0.29
05/05/2024 06:15:00,0.29
05/05/2024 06:30:00,0.29
05/05/2024 06:45:00,0.29
05/05/2024 07:00:00,0.29
05/05/2024 07:15:00,0.29
05/05/2024 07:30:00,0.29
05/05/2024 07:45:00,0.29
05/05/2024 08:00:00,0.29
05/05/2024 08:15:00,0.29
05/05/2024 08:30:00,0.29
05/05/2024 08:45:00,0.29
05/05/2024 09:00:00,0.29
05/05/2024 09:15:00,0.29
05/05/2024 09:30:00,0.29
05/05/2024 09:45:00,0.29
05/05/2024 10:00:00,0.291
05/05/2024 10:15:00,0.291
05/05/2024 10:30:00,0.291
05/05/2024 10:45:00,0.291
05/05/2024 11:00:00,0.291
05/05/2024 11:15:00,0.291
05/05/2024 11:30:00,0.291
05/05/2024 11:45:00,0.291
05/05/2024 12:00:00,0.291
05/05/2024 12:15:00,0.291
05/05/2024 12:30:00,0.291
05/05/2024 12:45:00,0.291
05/05/2024 13:00:00,0.291
05/05/2024 13:15:00,0.291
05/05/2024 13:30:00,0.291
05/05/2024 13:45:00,0.291
05/05/2024 14:00:00,0.291
05/05/2024 14:15:00,0.291
05/05/2024 14:30:00,0.291
05/05/2024 14:45:00,0.291
05/05/2024 15:00:00,0.291
05/05/2024 15:15:00,0.291
05/05/2024 15:30:00,0.291
05/05/2024 15:45:00,0.29
05/05/2024 16:00:00,0.29
05/05/2024 16:15:00,0.29
05/05/2024 16:30:00,0.29
05/05/2024 16:45:00,0.29
05/05/2024 17:00:00,0.291
05/05/2024 17:15:00,0.291
05/05/2024 17:30:00,0.291
05/05/2024 17:45:00,0.291
05/05/2024 18:00:00,0.291
05/05/2024 18:15:00,0.291
05/05/2024 18:30:00,0.291
05/05/2024 18:45:00,0.291
05/05/2024 19:00:00,0.291
05/05/2024 19:15:00,0.291
05/05/2024 19:30:00,0.291
05/05/2024 19:45:00,0.293
05/05/2024 20:00:00,0.294
05/05/2024 20:15:00,0.293
05/05/2024 20:30:00,0.291
05/05/2024 20:45:00,0.291
05/05/2024 21:00:00,0.29
05/05/2024 21:15:00,0.29
05/05/2024 21:30:00,0.289
05/05/2024 21:45:00,0.289
05/05/2024 22:00:00,0.289
05/05/2024 22:15:00,0.289
05/05/2024 22:30:00,0.289
05/05/2024 22:45:00,0.289
05/05/2024 23:00:00,0.289
05/05/2024 23:15:00,0.289
05/05/2024 23:30:00,0.289
05/05/2024 23:45:00,0.289
06/05/2024 00:00:00,0.289
06/05/2024 00:15:00,0.289
06/05/2024 00:30:00,0.289
06/05/2024 00:45:00,0.289
06/05/2024 01:00:00,0.289
06/05/2024 01:15:00,0.288
06/05/2024 01:30:00,0.288
06/05/2024 01:45:00,0.288
06/05/2024 02:00:00,0.288
06/05/2024 02:15:00,0.287
06/05/2024 02:30:00,0.287
06/05/2024 02:45:00,0.287
06/05/2024 03:00:00,0.287
06/05/2024 03:15:00,0.287
06/05/2024 03:30:00,0.287
06/05/2024 03:45:00,0.287
06/05/2024 04:00:00,0.287
06/05/2024 04:15:00,0.287
06/05/2024 04:30:00,0.287
06/05/2024 04:45:00,0.287
06/05/2024 05:00:00,0.287
06/05/2024 05:15:00,0.287
06/05/2024 05:30:00,0.287
06/05/2024 05:45:00,0.287
06/05/2024 06:00:00,0.287
06/05/2024 06:15:00,0.287
06/05/2024 06:30:00,0.287
06/05/2024 06:45:00,0.287
06/05/2024 07:00:00,0.287
06/05/2024 07:15:00,0.288
06/05/2024 07:30:00,0.288
06/05/2024 07:45:00,0.289
06/05/2024 08:00:00,0.289
06/05/2024 08:15:00,0.289
06/05/2024 08:30:00,0.289
06/05/2024 08:45:00,0.289
06/05/2024 09:00:00,0.29
06/05/2024 09:15:00,0.291
06/05/2024 09:30:00,0.291
06/05/2024 09:45:00,0.294
06/05/2024 10:00:00,0.296
06/05/2024 10:15:00,0.298
06/05/2024 10:30:00,0.299
06/05/2024 10:45:00,0.304
06/05/2024 11:00:00,0.308
06/05/2024 11:15:00,0.312
06/05/2024 11:30:00,0.32
06/05/2024 11:45:00,0.33
06/05/2024 12:00:00,0.348
06/05/2024 12:15:00,0.356
06/05/2024 12:30:00,0.362
06/05/2024 12:45:00,0.364
06/05/2024 13:00:00,0.364
06/05/2024 13:15:00,0.364
06/05/2024 13:30:00,0.363
06/05/2024 13:45:00,0.363
06/05/2024 14:00:00,0.362
06/05/2024 14:15:00,0.361
06/05/2024 14:30:00,0.36
06/05/2024 14:45:00,0.358
06/05/2024 15:00:00,0.355
06/05/2024 15:15:00,0.354
06/05/2024 15:30:00,0.352
06/05/2024 15:45:00,0.352
06/05/2024 16:00:00,0.35
06/05/2024 16:15:00,0.349
06/05/2024 16:30:00,0.348
06/05/2024 16:45:00,0.347
06/05/2024 17:00:00,0.345
06/05/2024 17:15:00,0.344
06/05/2024 17:30:00,0.344
06/05/2024 17:45:00,0.342
06/05/2024 18:00:00,0.342
06/05/2024 18:15:00,0.341
06/05/2024 18:30:00,0.341
06/05/2024 18:45:00,0.339
06/05/2024 19:00:00,0.339
06/05/2024 19:15:00,0.337
06/05/2024 19:30:00,0.335
06/05/2024 19:45:00,0.335
06/05/2024 20:00:00,0.333
06/05/2024 20:15:00,0.333
06/05/2024 20:30:00,0.332
06/05/2024 20:45:00,0.331
06/05/2024 21:00:00,0.331
06/05/2024 21:15:00,0.331
06/05/2024 21:30:00,0.33
06/05/2024 21:45:00,0.33
06/05/2024 22:00:00,0.329
06/05/2024 22:15:00,0.329
06/05/2024 22:30:00,0.329
06/05/2024 22:45:00,0.328
06/05/2024 23:00:00,0.327
06/05/2024 23:15:00,0.327
06/05/2024 23:30:00,0.327
06/05/2024 23:45:00,0.326
07/05/2024 00:00:00,0.324
07/05/2024 00:15:00,0.324
07/05/2024 00:30:00,0.324
07/05/2024 00:45:00,0.323
07/05/2024 01:00:00,0.323
07/05/2024 01:15:00,0.322
07/05/2024 01:30:00,0.322
07/05/2024 01:45:00,0.321
07/05/2024 02:00:00,0.321
07/05/2024 02:15:00,0.321
07/05/2024 02:30:00,0.321
07/05/2024 02:45:00,0.321
07/05/2024 03:00:00,0.32
07/05/2024 03:15:00,0.32
07/05/2024 03:30:00,0.32
